Time,TemperatureF,DewpointF,PressureIn,WindDirection,WindDirectionDegrees,WindSpeedMPH,WindSpeedGustMPH,Humidity,HourlyPrecipIn,Conditions,Clouds,dailyrainin,SoftwareType,DateUTC
2013-02-26 00:01:00,30.0,27.0,30.26,WNW,286,1.0,-999.0,90,-99.99,,,-99.99,,2013-02-26 08:01:00,
2013-02-26 00:11:00,30.0,27.0,30.26,WNW,286,1.0,-999.0,90,-99.99,,,-99.99,,2013-02-26 08:11:00,
2013-02-26 00:21:00,30.0,27.0,30.26,West,281,1.0,-999.0,89,-99.99,,,-99.99,,2013-02-26 08:21:00,
2013-02-26 00:31:00,30.0,27.0,30.27,West,281,2.0,-999.0,89,-99.99,,,-99.99,,2013-02-26 08:31:00,
2013-02-26 00:41:00,30.0,27.0,30.27,West,281,2.0,-999.0,89,-99.99,,,-99.99,,2013-02-26 08:41:00,
2013-02-26 00:52:00,30.0,27.0,30.27,WNW,289,1.0,-999.0,89,-99.99,,,-99.99,,2013-02-26 08:52:00,
2013-02-26 01:01:00,30.0,27.0,30.28,WNW,285,0.0,-999.0,88,-99.99,,,-99.99,,2013-02-26 09:01:00,
2013-02-26 01:11:00,30.0,27.0,30.28,WNW,285,0.0,-999.0,88,-99.99,,,-99.99,,2013-02-26 09:11:00,
2013-02-26 01:21:00,30.0,26.0,30.29,WNW,285,0.0,-999.0,86,-99.99,,,-99.99,,2013-02-26 09:21:00,
2013-02-26 01:31:00,29.0,26.0,30.29,WNW,285,0.0,-999.0,87,-99.99,,,-99.99,,2013-02-26 09:31:00,
2013-02-26 01:42:00,29.0,26.0,30.29,WNW,285,0.0,-999.0,87,-99.99,,,-99.99,,2013-02-26 09:42:00,
2013-02-26 01:52:00,29.0,26.0,30.30,WNW,285,0.0,-999.0,87,-99.99,,,-99.99,,2013-02-26 09:52:00,
2013-02-26 02:01:00,29.0,26.0,30.30,WNW,285,0.0,-999.0,87,-99.99,,,-99.99,,2013-02-26 10:01:00,
2013-02-26 02:11:00,29.0,26.0,30.30,WNW,285,0.0,-999.0,87,-99.99,,,-99.99,,2013-02-26 10:11:00,
2013-02-26 02:21:00,29.0,26.0,30.30,WNW,285,0.0,-999.0,88,-99.99,,,-99.99,,2013-02-26 10:21:00,
2013-02-26 02:31:00,28.0,25.0,30.31,WNW,285,0.0,-999.0,89,-99.99,,,-99.99,,2013-02-26 10:31:00,
2013-02-26 02:41:00,28.0,25.0,30.31,WNW,285,0.0,-999.0,89,-99.99,,,-99.99,,2013-02-26 10:41:00,
2013-02-26 02:52:00,28.0,25.0,30.31,WNW,285,0.0,-999.0,89,-99.99,,,-99.99,,2013-02-26 10:52:00,
2013-02-26 03:01:00,27.0,24.0,30.32,WNW,285,0.0,-999.0,90,-99.99,,,-99.99,,2013-02-26 11:01:00,
2013-02-26 03:11:00,27.0,24.0,30.32,WNW,285,0.0,-999.0,90,-99.99,,,-99.99,,2013-02-26 11:11:00,
2013-02-26 03:21:00,27.0,25.0,30.32,WNW,285,0.0,-999.0,91,-99.99,,,-99.99,,2013-02-26 11:21:00,
2013-02-26 03:31:00,27.0,25.0,30.32,WNW,285,0.0,-999.0,92,-99.99,,,-99.99,,2013-02-26 11:31:00,
2013-02-26 03:41:00,27.0,25.0,30.32,WNW,285,0.0,-999.0,92,-99.99,,,-99.99,,2013-02-26 11:41:00,
2013-02-26 03:52:00,28.0,26.0,30.33,WNW,285,0.0,-999.0,93,-99.99,,,-99.99,,2013-02-26 11:52:00,
2013-02-26 04:01:00,28.0,26.0,30.33,WNW,285,0.0,-999.0,93,-99.99,,,-99.99,,2013-02-26 12:01:00,
2013-02-26 04:11:00,28.0,26.0,30.33,WNW,285,0.0,-999.0,93,-99.99,,,-99.99,,2013-02-26 12:11:00,
2013-02-26 04:22:00,27.0,25.0,30.33,WNW,285,0.0,-999.0,93,-99.99,,,-99.99,,2013-02-26 12:22:00,
2013-02-26 04:32:00,26.0,24.0,30.34,WNW,285,0.0,-999.0,93,-99.99,,,-99.99,,2013-02-26 12:32:00,
2013-02-26 04:42:00,26.0,24.0,30.34,WNW,285,0.0,-999.0,93,-99.99,,,-99.99,,2013-02-26 12:42:00,
2013-02-26 04:52:00,26.0,24.0,30.35,WNW,285,0.0,-999.0,93,-99.99,,,-99.99,,2013-02-26 12:52:00,
2013-02-26 05:01:00,27.0,26.0,30.35,WNW,285,0.0,-999.0,94,-99.99,,,-99.99,,2013-02-26 13:01:00,
2013-02-26 05:11:00,27.0,26.0,30.35,WNW,285,0.0,-999.0,94,-99.99,,,-99.99,,2013-02-26 13:11:00,
2013-02-26 05:21:00,27.0,26.0,30.35,WNW,285,0.0,-999.0,94,-99.99,,,-99.99,,2013-02-26 13:21:00,
2013-02-26 05:31:00,27.0,26.0,30.35,WNW,285,0.0,-999.0,94,-99.99,,,-99.99,,2013-02-26 13:31:00,
2013-02-26 05:42:00,27.0,26.0,30.35,WNW,285,0.0,-999.0,94,-99.99,,,-99.99,,2013-02-26 13:42:00,
2013-02-26 05:52:00,27.0,26.0,30.35,WNW,285,0.0,-999.0,95,-99.99,,,-99.99,,2013-02-26 13:52:00,
2013-02-26 06:01:00,26.0,25.0,30.36,WNW,285,0.0,-999.0,94,-99.99,,,-99.99,,2013-02-26 14:01:00,
2013-02-26 06:11:00,26.0,25.0,30.36,WNW,285,0.0,-999.0,94,-99.99,,,-99.99,,2013-02-26 14:11:00,
2013-02-26 06:21:00,26.0,25.0,30.36,WNW,285,0.0,-999.0,94,-99.99,,,-99.99,,2013-02-26 14:21:00,
2013-02-26 06:31:00,26.0,25.0,30.37,WNW,285,0.0,-999.0,95,-99.99,,,-99.99,,2013-02-26 14:31:00,
2013-02-26 06:41:00,26.0,25.0,30.37,WNW,285,0.0,-999.0,95,-99.99,,,-99.99,,2013-02-26 14:41:00,
2013-02-26 06:52:00,26.0,25.0,30.37,WNW,285,0.0,-999.0,95,-99.99,,,-99.99,,2013-02-26 14:52:00,
2013-02-26 07:01:00,26.0,25.0,30.37,WNW,285,0.0,-999.0,95,-99.99,,,-99.99,,2013-02-26 15:01:00,
2013-02-26 07:11:00,26.0,25.0,30.37,WNW,285,0.0,-999.0,95,-99.99,,,-99.99,,2013-02-26 15:11:00,
2013-02-26 07:21:00,26.0,25.0,30.38,WNW,285,0.0,-999.0,95,-99.99,,,-99.99,,2013-02-26 15:21:00,
2013-02-26 07:31:00,26.0,25.0,30.39,WNW,285,0.0,-999.0,95,-99.99,,,-99.99,,2013-02-26 15:31:00,
2013-02-26 07:41:00,26.0,25.0,30.39,WNW,285,0.0,-999.0,95,-99.99,,,-99.99,,2013-02-26 15:41:00,
2013-02-26 07:52:00,27.0,26.0,30.40,WNW,285,0.0,-999.0,95,-99.99,,,-99.99,,2013-02-26 15:52:00,
2013-02-26 08:01:00,27.0,26.0,30.40,WNW,285,0.0,-999.0,95,-99.99,,,-99.99,,2013-02-26 16:01:00,
2013-02-26 08:11:00,27.0,26.0,30.40,WNW,285,0.0,-999.0,95,-99.99,,,-99.99,,2013-02-26 16:11:00,
2013-02-26 08:22:00,28.0,27.0,30.40,WNW,285,0.0,-999.0,95,-99.99,,,-99.99,,2013-02-26 16:22:00,
2013-02-26 08:31:00,29.0,27.0,30.41,WNW,285,0.0,-999.0,94,-99.99,,,-99.99,,2013-02-26 16:31:00,
2013-02-26 08:41:00,29.0,27.0,30.41,WNW,285,0.0,-999.0,94,-99.99,,,-99.99,,2013-02-26 16:41:00,
2013-02-26 08:52:00,29.0,27.0,30.42,WNW,285,0.0,-999.0,93,-99.99,,,-99.99,,2013-02-26 16:52:00,
2013-02-26 09:01:00,29.0,27.0,30.42,WNW,285,0.0,-999.0,92,-99.99,,,-99.99,,2013-02-26 17:01:00,
2013-02-26 09:11:00,29.0,27.0,30.42,WNW,285,0.0,-999.0,92,-99.99,,,-99.99,,2013-02-26 17:11:00,
2013-02-26 09:21:00,30.0,28.0,30.42,WNW,285,0.0,-999.0,91,-99.99,,,-99.99,,2013-02-26 17:21:00,
2013-02-26 09:32:00,30.0,27.0,30.43,SSW,207,0.0,-999.0,87,-99.99,,,-99.99,,2013-02-26 17:32:00,
2013-02-26 09:41:00,30.0,27.0,30.43,SSW,207,0.0,-999.0,87,-99.99,,,-99.99,,2013-02-26 17:41:00,
2013-02-26 09:52:00,31.0,27.0,30.43,SSW,207,0.0,-999.0,86,-99.99,,,-99.99,,2013-02-26 17:52:00,
2013-02-26 10:01:00,31.0,27.0,30.43,SSW,207,0.0,-999.0,86,-99.99,,,-99.99,,2013-02-26 18:01:00,
2013-02-26 10:12:00,31.0,27.0,30.43,SSW,207,0.0,-999.0,86,-99.99,,,-99.99,,2013-02-26 18:12:00,
2013-02-26 10:21:00,32.0,27.0,30.43,SE,144,0.0,-999.0,82,-99.99,,,-99.99,,2013-02-26 18:21:00,
2013-02-26 10:31:00,32.0,26.0,30.43,South,169,1.0,-999.0,77,-99.99,,,-99.99,,2013-02-26 18:31:00,
2013-02-26 10:42:00,32.0,26.0,30.43,South,169,1.0,-999.0,77,-99.99,,,-99.99,,2013-02-26 18:42:00,
2013-02-26 10:52:00,32.0,25.0,30.43,South,185,1.0,-999.0,76,-99.99,,,-99.99,,2013-02-26 18:52:00,
2013-02-26 11:01:00,32.0,26.0,30.42,East,89,1.0,-999.0,78,-99.99,,,-99.99,,2013-02-26 19:01:00,
2013-02-26 11:11:00,32.0,26.0,30.42,East,89,1.0,-999.0,78,-99.99,,,-99.99,,2013-02-26 19:11:00,
2013-02-26 11:22:00,33.0,27.0,30.43,SSE,147,0.0,-999.0,77,-99.99,,,-99.99,,2013-02-26 19:22:00,
2013-02-26 11:31:00,33.0,27.0,30.43,SSE,147,0.0,-999.0,77,-99.99,,,-99.99,,2013-02-26 19:31:00,
2013-02-26 11:41:00,33.0,27.0,30.43,SSE,147,0.0,-999.0,77,-99.99,,,-99.99,,2013-02-26 19:41:00,
2013-02-26 11:52:00,33.0,26.0,30.43,East,94,1.0,-999.0,76,-99.99,,,-99.99,,2013-02-26 19:52:00,
2013-02-26 12:01:00,34.0,27.0,30.43,East,87,1.0,-999.0,76,-99.99,,,-99.99,,2013-02-26 20:01:00,
2013-02-26 12:11:00,34.0,27.0,30.43,East,87,1.0,-999.0,76,-99.99,,,-99.99,,2013-02-26 20:11:00,
2013-02-26 12:21:00,34.0,27.0,30.43,East,87,1.0,-999.0,76,-99.99,,,-99.99,,2013-02-26 20:21:00,
2013-02-26 12:31:00,34.0,27.0,30.43,East,91,0.0,-999.0,74,-99.99,,,-99.99,,2013-02-26 20:31:00,
2013-02-26 12:41:00,34.0,27.0,30.43,East,91,0.0,-999.0,74,-99.99,,,-99.99,,2013-02-26 20:41:00,
2013-02-26 12:52:00,34.0,27.0,30.43,East,90,1.0,-999.0,75,-99.99,,,-99.99,,2013-02-26 20:52:00,
2013-02-26 13:01:00,34.0,26.0,30.42,East,90,1.0,-999.0,72,-99.99,,,-99.99,,2013-02-26 21:01:00,
2013-02-26 13:11:00,34.0,26.0,30.42,East,90,1.0,-999.0,72,-99.99,,,-99.99,,2013-02-26 21:11:00,
2013-02-26 13:21:00,34.0,26.0,30.42,East,90,1.0,-999.0,72,-99.99,,,-99.99,,2013-02-26 21:21:00,
2013-02-26 13:31:00,35.0,26.0,30.42,East,90,2.0,-999.0,70,-99.99,,,-99.99,,2013-02-26 21:31:00,
2013-02-26 13:41:00,35.0,26.0,30.42,East,90,2.0,-999.0,70,-99.99,,,-99.99,,2013-02-26 21:41:00,
2013-02-26 13:51:00,35.0,26.0,30.41,East,89,1.0,-999.0,70,-99.99,,,-99.99,,2013-02-26 21:51:00,
2013-02-26 14:01:00,36.0,26.0,30.42,East,83,1.0,-999.0,67,-99.99,,,-99.99,,2013-02-26 22:01:00,
2013-02-26 14:11:00,36.0,26.0,30.41,ENE,74,2.0,-999.0,67,-99.99,,,-99.99,,2013-02-26 22:11:00,
2013-02-26 14:21:00,36.0,26.0,30.41,ENE,74,2.0,-999.0,67,-99.99,,,-99.99,,2013-02-26 22:21:00,
2013-02-26 14:31:00,35.0,25.0,30.41,ENE,76,1.0,-999.0,67,-99.99,,,-99.99,,2013-02-26 22:31:00,
2013-02-26 14:41:00,35.0,25.0,30.41,ENE,76,1.0,-999.0,67,-99.99,,,-99.99,,2013-02-26 22:41:00,
2013-02-26 14:51:00,35.0,27.0,30.41,ENE,76,0.0,-999.0,71,-99.99,,,-99.99,,2013-02-26 22:51:00,
2013-02-26 15:01:00,36.0,26.0,30.41,ENE,76,0.0,-999.0,67,-99.99,,,-99.99,,2013-02-26 23:01:00,
2013-02-26 15:11:00,36.0,26.0,30.41,ENE,76,0.0,-999.0,67,-99.99,,,-99.99,,2013-02-26 23:11:00,
2013-02-26 15:21:00,35.0,26.0,30.40,ENE,76,0.0,-999.0,70,-99.99,,,-99.99,,2013-02-26 23:21:00,
2013-02-26 15:31:00,35.0,27.0,30.41,ENE,76,0.0,-999.0,73,-99.99,,,-99.99,,2013-02-26 23:31:00,
2013-02-26 15:41:00,35.0,27.0,30.41,ENE,76,0.0,-999.0,73,-99.99,,,-99.99,,2013-02-26 23:41:00,
2013-02-26 15:51:00,35.0,28.0,30.40,NE,36,1.0,-999.0,75,-99.99,,,-99.99,,2013-02-26 23:51:00,
2013-02-26 16:01:00,35.0,28.0,30.40,NE,49,1.0,-999.0,75,-99.99,,,-99.99,,2013-02-27 00:01:00,
2013-02-26 16:11:00,35.0,28.0,30.40,NE,49,1.0,-999.0,75,-99.99,,,-99.99,,2013-02-27 00:11:00,
2013-02-26 16:21:00,35.0,29.0,30.40,NE,49,1.0,-999.0,79,-99.99,,,-99.99,,2013-02-27 00:21:00,
2013-02-26 16:31:00,34.0,28.0,30.39,NE,48,0.0,-999.0,80,-99.99,,,-99.99,,2013-02-27 00:31:00,
2013-02-26 16:41:00,34.0,28.0,30.39,NE,48,0.0,-999.0,80,-99.99,,,-99.99,,2013-02-27 00:41:00,
2013-02-26 16:51:00,34.0,28.0,30.39,NE,48,0.0,-999.0,80,-99.99,,,-99.99,,2013-02-27 00:51:00,
2013-02-26 17:01:00,34.0,29.0,30.39,NE,48,0.0,-999.0,81,-99.99,,,-99.99,,2013-02-27 01:01:00,
2013-02-26 17:11:00,34.0,29.0,30.39,NE,48,0.0,-999.0,81,-99.99,,,-99.99,,2013-02-27 01:11:00,
2013-02-26 17:21:00,34.0,29.0,30.39,NE,48,0.0,-999.0,82,-99.99,,,-99.99,,2013-02-27 01:21:00,
2013-02-26 17:31:00,34.0,29.0,30.39,NE,48,0.0,-999.0,83,-99.99,,,-99.99,,2013-02-27 01:31:00,
2013-02-26 17:41:00,34.0,29.0,30.39,NE,48,0.0,-999.0,83,-99.99,,,-99.99,,2013-02-27 01:41:00,
2013-02-26 17:51:00,33.0,29.0,30.39,NE,48,0.0,-999.0,85,-99.99,,,-99.99,,2013-02-27 01:51:00,
2013-02-26 18:01:00,32.0,29.0,30.39,NE,48,0.0,-999.0,87,-99.99,,,-99.99,,2013-02-27 02:01:00,
2013-02-26 18:13:00,32.0,29.0,30.39,NE,48,0.0,-999.0,87,-99.99,,,-99.99,,2013-02-27 02:13:00,
2013-02-26 18:21:00,30.0,27.0,30.39,NE,48,0.0,-999.0,90,-99.99,,,-99.99,,2013-02-27 02:21:00,
2013-02-26 18:31:00,29.0,27.0,30.39,NE,48,0.0,-999.0,92,-99.99,,,-99.99,,2013-02-27 02:31:00,
2013-02-26 18:41:00,29.0,27.0,30.39,NE,48,0.0,-999.0,92,-99.99,,,-99.99,,2013-02-27 02:41:00,
2013-02-26 18:52:00,28.0,26.0,30.39,NE,48,0.0,-999.0,92,-99.99,,,-99.99,,2013-02-27 02:52:00,
2013-02-26 19:01:00,27.0,25.0,30.39,NE,48,0.0,-999.0,92,-99.99,,,-99.99,,2013-02-27 03:01:00,
2013-02-26 19:11:00,27.0,25.0,30.39,NE,48,0.0,-999.0,92,-99.99,,,-99.99,,2013-02-27 03:11:00,
2013-02-26 19:21:00,27.0,25.0,30.39,NE,48,0.0,-999.0,93,-99.99,,,-99.99,,2013-02-27 03:21:00,
2013-02-26 19:31:00,26.0,24.0,30.40,NE,48,0.0,-999.0,93,-99.99,,,-99.99,,2013-02-27 03:31:00,
2013-02-26 19:41:00,26.0,24.0,30.40,NE,48,0.0,-999.0,93,-99.99,,,-99.99,,2013-02-27 03:41:00,
2013-02-26 19:51:00,26.0,24.0,30.39,NE,48,0.0,-999.0,93,-99.99,,,-99.99,,2013-02-27 03:51:00,
2013-02-26 20:01:00,25.0,24.0,30.39,NE,48,0.0,-999.0,94,-99.99,,,-99.99,,2013-02-27 04:01:00,
2013-02-26 20:11:00,25.0,24.0,30.39,NE,48,0.0,-999.0,94,-99.99,,,-99.99,,2013-02-27 04:11:00,
2013-02-26 20:21:00,24.0,22.0,30.39,NE,48,0.0,-999.0,93,-99.99,,,-99.99,,2013-02-27 04:21:00,
2013-02-26 20:31:00,22.0,20.0,30.40,NE,48,0.0,-999.0,93,-99.99,,,-99.99,,2013-02-27 04:31:00,
2013-02-26 20:41:00,22.0,20.0,30.40,NE,48,0.0,-999.0,93,-99.99,,,-99.99,,2013-02-27 04:41:00,
2013-02-26 20:51:00,22.0,20.0,30.40,NE,48,0.0,-999.0,93,-99.99,,,-99.99,,2013-02-27 04:51:00,
2013-02-26 21:01:00,22.0,21.0,30.40,NE,48,0.0,-999.0,94,-99.99,,,-99.99,,2013-02-27 05:01:00,
2013-02-26 21:11:00,22.0,21.0,30.40,NE,48,0.0,-999.0,94,-99.99,,,-99.99,,2013-02-27 05:11:00,
2013-02-26 21:21:00,21.0,19.0,30.40,NE,48,0.0,-999.0,93,-99.99,,,-99.99,,2013-02-27 05:21:00,
2013-02-26 21:32:00,20.0,18.0,30.40,NE,48,0.0,-999.0,93,-99.99,,,-99.99,,2013-02-27 05:32:00,
2013-02-26 21:41:00,20.0,18.0,30.40,NE,48,0.0,-999.0,93,-99.99,,,-99.99,,2013-02-27 05:41:00,
2013-02-26 21:52:00,20.0,19.0,30.40,NE,48,0.0,-999.0,94,-99.99,,,-99.99,,2013-02-27 05:52:00,
2013-02-26 22:02:00,20.0,19.0,30.40,NE,48,0.0,-999.0,94,-99.99,,,-99.99,,2013-02-27 06:02:00,
2013-02-26 22:11:00,20.0,19.0,30.40,NE,48,0.0,-999.0,94,-99.99,,,-99.99,,2013-02-27 06:11:00,
2013-02-26 22:21:00,20.0,19.0,30.40,NE,48,0.0,-999.0,95,-99.99,,,-99.99,,2013-02-27 06:21:00,
2013-02-26 22:32:00,21.0,20.0,30.41,NE,48,0.0,-999.0,95,-99.99,,,-99.99,,2013-02-27 06:32:00,
2013-02-26 22:41:00,21.0,20.0,30.41,NE,48,0.0,-999.0,95,-99.99,,,-99.99,,2013-02-27 06:41:00,
2013-02-26 22:51:00,21.0,20.0,30.41,NE,48,0.0,-999.0,95,-99.99,,,-99.99,,2013-02-27 06:51:00,
2013-02-26 23:01:00,21.0,20.0,30.41,NE,48,0.0,-999.0,95,-99.99,,,-99.99,,2013-02-27 07:01:00,
2013-02-26 23:12:00,21.0,20.0,30.41,NE,48,0.0,-999.0,95,-99.99,,,-99.99,,2013-02-27 07:12:00,
2013-02-26 23:21:00,21.0,20.0,30.41,NE,48,0.0,-999.0,94,-99.99,,,-99.99,,2013-02-27 07:21:00,
2013-02-26 23:31:00,22.0,21.0,30.41,NE,48,0.0,-999.0,94,-99.99,,,-99.99,,2013-02-27 07:31:00,
2013-02-26 23:41:00,22.0,21.0,30.41,NE,48,0.0,-999.0,94,-99.99,,,-99.99,,2013-02-27 07:41:00,
2013-02-26 23:51:00,22.0,21.0,30.41,NE,48,0.0,-999.0,95,-99.99,,,-99.99,,2013-02-27 07:51:00,